Location: Pinon Hills
(34.4429°N, 117.6403°W)
Time: 21:54:00
(UTC-07:00)

Amateur Radio Satellites - All Passes

Search period start: 15 September 2014 21:24
Search period end: 16 September 2014 21:24
Location: Pinon Hills, 34.4429°N, 117.6403°W

Satellite Date Start Highest point End Downlink Frequencies (MHz)
Time Altitude Azimuth
FUNcube-1 15 Sep 21:34:30 21:37:33 19° 68° (ENE) 21:40:40 145.950 - 145.970 MHz USB
PCSat 15 Sep 21:37:30 21:41:30 21° 52° (NE) 21:45:29 145.825 MHz
Oscar 11 15 Sep 21:54:44 21:59:05 89° 258° (WSW) 22:03:28 145.825 FM, Beacon 2401.500 USB
UKube-1 15 Sep 22:07:31 22:11:35 40° 261° (W) 22:15:41 145.840 MHz, 145.915 MHz
SO-50 15 Sep 22:11:35 22:14:11 15° 108° (ESE) 22:16:50 436.795 FM
KITSAT 1 15 Sep 22:12:43 22:18:37 22° 315° (NW) 22:24:32 435.175 FM
Sapphire 15 Sep 22:52:16 22:57:43 84° 64° (ENE) 23:03:08 437.095 MHz 1200 baud AX-25 AFSK
HO-68 15 Sep 22:54:06 22:57:37 14° 268° (W) 23:01:10 435.675 MHz FM
FUNcube-1 15 Sep 23:09:51 23:13:41 31° 263° (W) 23:17:37 145.950 - 145.970 MHz USB
PCSat 15 Sep 23:19:57 23:25:10 50° 249° (WSW) 23:30:22 145.825 MHz
SO-50 15 Sep 23:50:04 23:54:19 43° 303° (WNW) 23:58:41 436.795 FM
UOSAT-12 16 Sep 00:11:17 00:14:48 22° 110° (ESE) 00:18:23 437.025 FM, 437.400 FM
Oscar 16 16 Sep 01:17:24 01:20:37 17° 93° (E) 01:23:49 437.025 USB, Beacon 2401.1428
UOSAT-12 16 Sep 01:50:32 01:54:43 34° 305° (NW) 01:58:59 437.025 FM, 437.400 FM
ITAMSAT 1 16 Sep 01:52:45 01:55:31 14° 93° (E) 01:58:16 435.822 SSB
Uribyol 2 16 Sep 01:57:26 02:00:53 18° 94° (E) 02:04:18 436.500 FM
AO-Echo 16 Sep 02:02:17 02:05:55 21° 96° (E) 02:09:37 ?
Saudisat 1A 16 Sep 02:04:28 02:05:45 11° 46° (NE) 02:07:02 436.775 MHz
Oscar 19 16 Sep 02:16:56 02:22:06 68° 102° (ESE) 02:27:12 437.125 CW, 437.150 USB
AO-27 16 Sep 02:25:05 02:29:44 32° 98° (E) 02:34:23 436.795 MHz FM
Oscar 10/S400 16 Sep 02:29:48 03:46:56 37° 239° (WSW) 08:21:15 145.825 - 145.975 CW/USB, Beacon 145.810 USB
PANSAT 16 Sep 02:30:22 02:32:25 14° 160° (SSE) 02:34:28 not established
RS-15 16 Sep 02:40:46 02:41:37 10° 97° (E) 02:42:28 29.354 - 29.394 USB, Beacon 29.352 USB
Oscar 16 16 Sep 02:55:13 03:00:11 48° 287° (WNW) 03:05:06 437.025 USB, Beacon 2401.1428
Gurwin Techsat 1B 16 Sep 02:55:16 02:59:52 29° 97° (E) 03:04:26 435.225 FM
JAS-1B 16 Sep 03:11:54 03:17:42 88° 284° (WNW) 03:23:25 435.800 - 435.900 CW/SSB
ISS 16 Sep 03:21:51 03:25:02 45° 133° (SE) 03:28:15 145.800 FM
ITAMSAT 1 16 Sep 03:30:12 03:35:17 56° 287° (WNW) 03:40:22 435.822 SSB
TMSAT-1 16 Sep 03:34:29 03:39:40 52° 100° (E) 03:44:49 436.925 FM
Uribyol 2 16 Sep 03:35:33 03:40:31 46° 288° (WNW) 03:45:29 436.500 FM
AO-Echo 16 Sep 03:40:22 03:44:42 34° 288° (WNW) 03:49:08 ?
Saudisat 1A 16 Sep 03:41:26 03:45:51 78° 242° (WSW) 03:50:14 436.775 MHz
AO-7 16 Sep 03:44:23 03:49:28 17° 93° (E) 03:54:32 29.400 - 29.500 MHz
Oscar 19 16 Sep 03:58:37 04:00:48 13° 297° (WNW) 04:02:58 437.125 CW, 437.150 USB
AO-27 16 Sep 04:04:50 04:09:04 26° 292° (WNW) 04:13:17 436.795 MHz FM
PANSAT 16 Sep 04:08:44 04:12:04 29° 172° (S) 04:15:26 not established
KITSAT 1 16 Sep 04:12:23 04:18:36 23° 46° (NE) 04:24:45 435.175 FM
Gurwin Techsat 1B 16 Sep 04:35:12 04:39:43 29° 291° (WNW) 04:44:13 435.225 FM
OPAL 16 Sep 04:35:41 04:40:48 73° 73° (ENE) 04:46:00 ?
RS-15 16 Sep 04:40:54 04:51:53 68° 113° (ESE) 05:02:40 29.354 - 29.394 USB, Beacon 29.352 USB
Uosat F 16 Sep 04:46:40 04:51:27 43° 99° (E) 04:56:12 435.120 FM
ISS 16 Sep 04:59:35 05:01:55 18° 329° (NNW) 05:04:16 145.800 FM
TMSAT-1 16 Sep 05:15:49 05:19:06 17° 295° (WNW) 05:22:24 436.925 FM
AO-7 16 Sep 05:34:39 05:42:56 81° 289° (WNW) 05:51:13 29.400 - 29.500 MHz
PANSAT 16 Sep 05:48:26 05:51:53 32° 185° (S) 05:55:20 not established
KITSAT 1 16 Sep 06:06:42 06:14:46 77° 246° (WSW) 06:22:47 435.175 FM
OPAL 16 Sep 06:19:00 06:20:07 11° 267° (W) 06:21:14 ?
Uosat F 16 Sep 06:26:27 06:29:52 19° 294° (WNW) 06:33:17 435.120 FM
JAS-2 16 Sep 06:27:13 06:33:08 60° 102° (ESE) 06:39:49 435.800 - 435.900 CW/SSB, 435.910 FM
STRAND 1 16 Sep 06:49:17 06:54:20 76° 75° (ENE) 06:59:26 ?
Hamsat 16 Sep 06:50:07 06:54:23 79° 283° (WNW) 06:58:35 145.90 MHz
RS-15 16 Sep 06:55:26 07:04:58 33° 315° (NW) 07:14:31 29.354 - 29.394 USB, Beacon 29.352 USB
PANSAT 16 Sep 07:28:54 07:31:36 18° 197° (SSW) 07:34:19 not established
AO-7 16 Sep 07:30:06 07:34:26 16° 307° (NW) 07:38:47 29.400 - 29.500 MHz
SO-67 16 Sep 07:47:48 07:51:14 64° 101° (E) 07:54:39 435.3500 MHz FM
KITSAT 1 16 Sep 08:06:59 08:08:50 11° 261° (W) 08:10:41 435.175 FM
JAS-2 16 Sep 08:13:49 08:17:51 19° 293° (WNW) 08:22:10 435.800 - 435.900 CW/SSB, 435.910 FM
SO-50 16 Sep 08:24:37 08:29:24 61° 59° (ENE) 08:34:13 436.795 FM
MaSat-1 16 Sep 08:25:48 08:30:04 30° 105° (ESE) 08:34:26 437.345 MHz
HO-68 16 Sep 08:35:35 08:40:15 18° 93° (E) 08:44:54 435.675 MHz FM
RS-15 16 Sep 09:19:20 09:22:27 11° 349° (NNW) 09:25:35 29.354 - 29.394 USB, Beacon 29.352 USB
Oscar 11 16 Sep 09:46:46 09:50:07 21° 95° (E) 09:53:26 145.825 FM, Beacon 2401.500 USB
ISS 16 Sep 09:54:16 09:56:15 15° 29° (NNE) 09:58:14 145.800 FM
UKube-1 16 Sep 09:59:06 10:03:15 42° 100° (E) 10:07:23 145.840 MHz, 145.915 MHz
MaSat-1 16 Sep 10:02:28 10:06:49 29° 300° (WNW) 10:11:11 437.345 MHz
SO-50 16 Sep 10:07:19 10:09:27 13° 253° (WSW) 10:11:34 436.795 FM
HO-68 16 Sep 10:21:18 10:28:25 69° 288° (WNW) 10:35:32 435.675 MHz FM
UOSAT-12 16 Sep 10:23:00 10:27:44 78° 61° (ENE) 10:32:21 437.025 FM, 437.400 FM
FUNcube-1 16 Sep 11:01:52 11:06:29 66° 101° (E) 11:11:01 145.950 - 145.970 MHz USB
Oscar 11 16 Sep 11:22:35 11:26:14 27° 289° (WNW) 11:29:51 145.825 FM, Beacon 2401.500 USB
ISS 16 Sep 11:29:58 11:33:15 62° 225° (SW) 11:36:32 145.800 FM
RS-15 16 Sep 11:35:23 11:41:56 17° 28° (NNE) 11:48:34 29.354 - 29.394 USB, Beacon 29.352 USB
UKube-1 16 Sep 11:36:43 11:39:03 14° 294° (WNW) 11:41:23 145.840 MHz, 145.915 MHz
Sapphire 16 Sep 11:49:17 11:52:48 18° 105° (ESE) 11:56:20 437.095 MHz 1200 baud AX-25 AFSK
JAS-1B 16 Sep 12:09:22 12:09:40 10° 58° (ENE) 12:09:57 435.800 - 435.900 CW/SSB
HO-68 16 Sep 12:13:18 12:14:49 11° 305° (NW) 12:16:21 435.675 MHz FM
PCSat 16 Sep 12:15:08 12:19:59 35° 109° (ESE) 12:24:52 145.825 MHz
Oscar 16 16 Sep 12:31:11 12:34:35 18° 66° (ENE) 12:38:01 437.025 USB, Beacon 2401.1428
FUNcube-1 16 Sep 12:41:08 12:42:14 11° 295° (WNW) 12:43:20 145.950 - 145.970 MHz USB
Oscar 10/S400 16 Sep 12:51:41 13:12:05 18° 156° (SSE) 13:24:28 145.825 - 145.975 CW/USB, Beacon 145.810 USB
ITAMSAT 1 16 Sep 13:07:38 13:10:44 16° 65° (ENE) 13:13:50 435.822 SSB
Uribyol 2 16 Sep 13:12:11 13:15:46 19° 66° (ENE) 13:19:22 436.500 FM
AO-Echo 16 Sep 13:12:36 13:15:54 19° 68° (ENE) 13:19:10 ?
Oscar 19 16 Sep 13:30:08 13:35:16 68° 75° (ENE) 13:40:26 437.125 CW, 437.150 USB
Sapphire 16 Sep 13:30:31 13:35:45 50° 300° (WNW) 13:41:02 437.095 MHz 1200 baud AX-25 AFSK
AO-27 16 Sep 13:39:53 13:44:31 35° 70° (ENE) 13:49:10 436.795 MHz FM
RS-15 16 Sep 13:46:28 13:57:25 57° 55° (NE) 14:08:46 29.354 - 29.394 USB, Beacon 29.352 USB
JAS-1B 16 Sep 13:50:12 13:59:07 63° 73° (ENE) 14:06:41 435.800 - 435.900 CW/SSB
PCSat 16 Sep 13:58:50 14:03:24 27° 305° (NW) 14:08:00 145.825 MHz
Oscar 16 16 Sep 14:08:33 14:13:31 47° 260° (W) 14:18:32 437.025 USB, Beacon 2401.1428
Gurwin Techsat 1B 16 Sep 14:12:57 14:17:38 33° 70° (ENE) 14:22:20 435.225 FM
AO-7 16 Sep 14:40:15 14:45:46 20° 56° (ENE) 14:51:16 29.400 - 29.500 MHz
ITAMSAT 1 16 Sep 14:44:44 14:49:44 52° 260° (W) 14:54:47 435.822 SSB
AO-Echo 16 Sep 14:49:58 14:54:24 37° 261° (W) 14:58:47 ?
Uribyol 2 16 Sep 14:50:00 14:54:52 43° 261° (W) 14:59:48 436.500 FM
TMSAT-1 16 Sep 14:51:41 14:56:51 58° 74° (ENE) 15:02:02 436.925 FM
Oscar 19 16 Sep 15:13:22 15:15:00 11° 269° (W) 15:16:39 437.125 CW, 437.150 USB
AO-27 16 Sep 15:20:00 15:24:02 23° 264° (W) 15:28:06 436.795 MHz FM
JAS-1B 16 Sep 15:42:35 15:49:43 26° 264° (W) 15:56:07 435.800 - 435.900 CW/SSB
Gurwin Techsat 1B 16 Sep 15:53:14 15:57:34 26° 264° (W) 16:01:55 435.225 FM
Uosat F 16 Sep 15:56:33 16:01:11 41° 71° (ENE) 16:05:51 435.120 FM
RS-15 16 Sep 15:59:27 16:09:16 37° 253° (WSW) 16:19:30 29.354 - 29.394 USB, Beacon 29.352 USB
AO-7 16 Sep 16:29:14 16:37:34 83° 253° (WSW) 16:45:55 29.400 - 29.500 MHz
TMSAT-1 16 Sep 16:34:21 16:37:04 14° 268° (W) 16:39:49 436.925 FM
JAS-2 16 Sep 16:39:52 16:42:21 13° 65° (ENE) 16:44:48 435.800 - 435.900 CW/SSB, 435.910 FM
OPAL 16 Sep 16:49:57 16:54:14 26° 98° (E) 16:58:26 ?
Uosat F 16 Sep 17:36:40 17:40:05 18° 265° (W) 17:43:31 435.120 FM
Hamsat 16 Sep 17:39:37 17:43:46 45° 74° (ENE) 17:47:57 145.90 MHz
Saudisat 1A 16 Sep 17:44:19 17:48:39 64° 117° (ESE) 17:53:01 436.775 MHz
SO-67 16 Sep 18:19:11 18:20:37 12° 69° (ENE) 18:22:04 435.3500 MHz FM
JAS-2 16 Sep 18:21:36 18:27:00 60° 259° (WSW) 18:32:07 435.800 - 435.900 CW/SSB, 435.910 FM
MaSat-1 16 Sep 18:23:04 18:26:04 22° 57° (ENE) 18:28:43 437.345 MHz
AO-7 16 Sep 18:28:03 18:31:17 13° 269° (W) 18:34:32 29.400 - 29.500 MHz
OPAL 16 Sep 18:28:31 18:33:03 32° 292° (WNW) 18:37:31 ?
KITSAT 1 16 Sep 18:37:54 18:43:45 22° 103° (ESE) 18:49:36 435.175 FM
STRAND 1 16 Sep 19:03:49 19:08:28 34° 98° (E) 19:13:06 ?
Hamsat 16 Sep 19:18:02 19:19:55 13° 268° (W) 19:21:48 145.90 MHz
Saudisat 1A 16 Sep 19:26:36 19:28:38 13° 313° (NW) 19:30:41 436.775 MHz
SO-67 16 Sep 19:50:20 19:53:21 28° 263° (W) 19:56:23 435.3500 MHz FM
MaSat-1 16 Sep 20:00:18 20:02:34 16° 259° (WSW) 20:04:38 437.345 MHz
KITSAT 1 16 Sep 20:30:22 20:38:23 67° 299° (WNW) 20:46:28 435.175 FM
Oscar 11 16 Sep 20:40:18 20:41:51 12° 66° (ENE) 20:43:24 145.825 FM, Beacon 2401.500 USB
STRAND 1 16 Sep 20:43:24 20:47:26 24° 292° (WNW) 20:51:28 ?
HO-68 16 Sep 20:45:26 20:52:26 63° 71° (ENE) 20:59:28 435.675 MHz FM
UKube-1 16 Sep 20:51:41 20:55:10 24° 70° (ENE) 20:58:39 145.840 MHz, 145.915 MHz
PCSat 16 Sep 21:07:36 21:10:43 15° 49° (NE) 21:13:50 145.825 MHz
